Theta_e
299 301 303 306 311 320 334 337 335 335 335 335 334 334 331 333 334 337 339 338 337 334 336 339 339 338 334 334 333 335 333 330 330 326 325 326 329 328 332 334 332 331 332
298 300 301 304 309 313 330 336 337 336 334 333 335 337 336 336 336 337 338 338 339 338 338 337 336 335 333 333 332 332 329 330 330 325 323 320 324 326 328 330 330 332 333
297 298 300 302 307 312 320 332 337 337 337 336 336 336 337 336 335 334 334 336 338 339 340 338 336 335 335 332 331 332 333 327 327 329 328 320 318 322 326 325 329 328 329
296 298 299 300 308 311 316 330 335 338 339 339 337 335 332 330 333 334 334 335 338 338 338 339 337 336 335 334 332 333 334 333 325 327 326 324 325 319 317 322 323 324 327
298 297 298 301 311 314 315 324 330 334 337 339 338 336 336 338 338 336 333 335 335 334 333 332 332 334 334 335 334 332 332 335 333 328 324 323 320 320 319 317 320 324 327
300 303 305 306 306 307 310 313 314 311 314 322 330 335 333 332 331 333 330 332 333 326 324 324 325 332 333 333 334 334 333 333 335 332 329 324 320 318 319 317 319 319 324
294 295 296 298 300 301 303 306 307 305 305 305 305 308 312 317 324 329 329 330 328 328 325 326 328 331 333 334 334 332 332 332 331 331 329 327 327 323 322 319 319 317 322
292 292 293 294 296 298 298 299 301 300 301 302 303 304 304 307 308 312 314 322 327 329 331 330 331 332 333 333 332 331 332 332 332 332 332 327 327 325 321 320 319 315 317
291 291 292 292 294 294 294 295 296 297 298 298 299 300 302 303 304 306 307 310 310 312 316 327 330 329 331 331 330 329 329 330 330 331 333 330 327 324 323 320 323 317 313
289 291 291 291 292 292 293 293 294 294 295 296 296 297 299 299 301 302 303 305 306 307 310 312 316 325 328 330 329 328 328 327 328 329 329 327 328 327 323 325 320 321 318
287 288 289 291 291 292 292 291 292 292 293 294 294 296 295 296 298 298 299 300 303 305 306 309 312 315 321 326 327 326 326 324 326 327 326 324 326 325 322 322 322 320 320
286 287 287 288 288 289 290 290 290 290 291 293 293 293 294 295 295 296 297 299 300 302 304 306 308 312 316 321 324 324 324 323 322 324 323 321 322 322 321 319 319 318 320
285 285 285 285 285 286 287 288 289 290 290 291 291 292 292 291 293 294 296 297 298 299 302 304 306 310 314 318 322 323 323 322 323 322 321 321 321 319 319 318 318 317 319
284 284 283 284 284 285 286 287 287 287 287 289 289 290 290 290 291 293 293 294 296 297 299 302 305 308 311 318 321 322 322 321 323 321 321 322 320 320 318 317 317 317 317
282 282 282 282 283 283 284 286 287 287 288 288 287 288 288 289 289 290 291 292 293 295 298 300 303 307 310 316 320 321 321 321 322 321 320 322 318 310 314 317 317 317 316
282 282 283 282 282 282 284 285 285 286 287 285 285 286 287 288 288 289 290 291 292 293 294 297 300 304 308 306 303 313 321 320 321 319 318 319 307 307 302 303 304 315 316
280 281 281 281 281 282 283 283 284 286 285 285 285 285 285 286 287 287 288 289 289 291 292 294 297 301 305 303 302 300 322 321 321 320 317 316 315 309 312 299 299 300 300
279 280 280 281 282 283 283 284 284 284 284 284 283 283 284 284 285 286 287 287 288 289 290 292 295 297 302 300 300 298 319 319 321 319 317 316 314 313 313 311 302 298 296
279 279 281 281 281 282 283 283 282 283 282 282 282 282 283 283 283 283 285 286 287 288 289 291 292 293 297 299 298 299 313 317 317 316 315 315 316 303 301 305 295 288 286
279 279 280 280 280 281 283 281 281 282 281 280 281 282 282 282 282 282 283 286 286 287 288 288 289 288 288 289 290 299 313 311 309 306 311 299 309 294 294 302 295 291 287
278 279 279 279 280 281 282 280 281 280 282 281 281 281 282 282 282 282 283 284 284 284 284 285 286 286 286 287 288 292 309 307 299 297 297 293 294 293 294 295 296 293 287
277 278 278 278 279 280 281 280 280 282 282 281 280 280 281 282 281 281 281 283 283 282 281 282 283 285 285 286 286 288 291 297 297 291 287 288 290 290 289 288 287 287 286
276 277 277 277 278 279 280 278 280 281 281 280 279 279 280 281 281 281 279 280 281 281 280 280 279 281 283 284 285 285 286 287 287 286 287 287 287 286 285 285 285 286 286
276 276 276 276 276 278 279 279 281 282 281 280 279 280 279 280 280 281 281 279 279 279 279 280 278 279 280 282 283 283 283 284 284 283 283 282 282 283 283 283 282 282 283
277 277 276 275 276 278 279 279 280 281 280 280 279 279 280 279 279 279 279 279 279 279 278 279 280 278 278 279 283 283 282 282 282 283 283 282 281 280 279 279 279 280 280
277 276 276 276 276 277 278 278 280 280 279 279 279 278 279 279 279 278 278 279 278 278 278 279 279 280 280 281 281 281 282 282 281 278 277 277 277 277 277 277 277 278 278
Wind_Speed
31 25 21 20 20 20 21 22 20 20 15 13 14 12 13 11 10 12 16 15 13 15 15 10 11 11 11 12 12 10 11 6 7 4 3 3 7 8 8 8 7 8 10
28 29 23 22 20 19 19 21 22 21 18 14 13 9 11 10 11 10 13 15 16 16 14 14 12 12 9 11 12 12 5 5 8 4 2 4 5 7 8 8 8 10 8
28 27 25 22 21 16 20 22 23 22 21 19 12 9 8 5 9 10 11 13 16 16 15 14 12 13 12 10 11 13 14 7 7 9 4 4 7 4 5 9 9 9 8
30 26 26 21 19 15 14 19 19 19 18 20 16 19 14 12 11 11 7 8 14 13 12 10 10 11 9 11 12 10 11 10 8 6 5 1 3 5 4 4 7 8 10
25 24 22 21 3 4 9 12 12 12 15 18 17 13 13 8 7 7 9 9 8 8 8 6 5 7 7 10 11 12 13 11 9 8 4 6 2 1 3 5 5 7 8
4 12 13 12 13 12 14 14 18 15 13 10 6 12 13 10 7 9 9 7 8 7 8 5 7 13 10 12 11 14 16 13 12 10 9 9 7 7 6 5 6 7 6
18 18 18 17 16 15 18 16 19 19 17 16 13 12 10 9 6 5 6 10 8 7 10 14 15 12 15 13 10 13 12 13 12 14 11 9 9 5 8 6 5 6 6
18 20 21 18 18 16 22 20 21 20 17 15 14 13 11 7 5 5 3 1 3 3 3 9 8 10 14 13 12 10 11 12 12 16 13 9 9 8 6 7 7 5 5
19 20 19 19 17 19 23 20 19 18 17 14 12 12 9 10 6 6 4 2 3 3 4 4 6 10 13 14 13 11 13 12 12 14 14 11 9 9 8 6 7 7 6
19 18 19 19 17 19 18 17 19 16 15 13 12 9 10 7 5 5 7 7 6 7 7 7 7 8 11 12 13 11 12 13 11 11 14 12 10 11 9 10 7 7 7
18 18 16 16 17 16 17 17 17 14 16 13 12 13 8 7 10 6 7 8 9 8 9 9 9 11 13 11 12 13 12 13 13 13 12 13 14 10 9 8 8 8 8
14 15 17 17 17 16 15 15 15 16 15 12 11 9 12 12 11 13 13 11 12 11 10 10 11 13 13 15 14 14 12 13 13 14 13 14 11 14 11 9 11 9 10
16 15 16 15 16 14 12 12 11 14 15 14 13 11 10 9 9 11 11 10 11 12 13 12 13 13 14 15 16 14 13 14 14 14 14 16 15 14 10 10 10 9 8
16 14 14 14 14 13 14 15 15 19 17 18 18 14 15 14 12 10 11 11 12 14 13 13 15 15 14 15 16 16 14 15 15 14 15 17 17 15 14 12 12 10 9
19 18 17 15 15 21 22 19 18 18 14 11 11 14 16 15 14 15 15 15 14 14 15 15 15 15 14 12 15 16 15 15 17 14 14 15 17 16 15 11 12 12 10
19 21 20 21 20 20 18 16 16 15 14 15 13 17 17 15 14 13 13 13 14 14 15 16 16 17 13 15 17 16 14 15 15 13 13 13 14 15 16 14 14 15 14
19 20 20 18 18 18 17 17 18 17 16 18 18 16 15 15 16 16 16 16 15 16 16 16 16 17 15 18 18 19 15 13 14 14 13 12 10 14 13 13 14 14 13
19 18 15 15 15 15 14 13 14 15 16 17 16 17 18 17 18 17 17 16 14 15 14 15 16 16 13 19 16 18 16 11 13 14 14 14 13 15 15 12 8 6 4
13 12 13 13 13 14 15 13 14 15 18 15 15 16 17 16 17 17 17 15 13 14 13 13 15 14 12 21 17 13 12 12 13 13 14 15 15 16 15 12 10 6 3
13 14 13 12 13 13 13 13 14 14 16 16 15 15 16 16 17 17 17 16 13 13 12 13 10 12 13 18 22 13 9 9 7 7 12 14 13 18 19 12 12 10 7
13 13 11 12 14 13 12 12 13 15 14 13 14 14 16 16 17 16 15 16 15 14 14 13 10 11 12 16 26 15 11 8 7 8 6 4 14 18 19 16 12 10 12
13 13 11 12 13 15 13 12 13 13 13 11 11 12 13 12 13 17 15 17 16 15 14 14 12 10 13 19 23 21 9 9 12 8 2 4 13 14 13 8 16 20 13
11 11 10 11 12 13 12 14 14 14 12 13 12 12 13 12 13 14 16 13 15 13 13 12 12 12 13 11 21 23 22 13 5 7 11 20 23 25 17 19 17 12 8
10 10 11 12 13 13 14 12 14 13 13 13 14 12 12 14 13 10 10 11 13 13 13 12 12 11 12 13 12 8 10 12 10 10 11 13 16 16 13 10 10 8 7
10 9 10 11 13 13 14 14 14 14 13 12 12 12 11 12 11 11 10 10 12 15 12 13 11 13 12 15 19 15 9 8 8 8 7 9 8 9 8 9 8 7 8
11 11 12 12 12 13 14 15 16 15 14 12 11 10 10 10 9 10 10 15 17 23 26 26 19 11 22 23 25 26 23 19 18 10 10 11 9 8 8 9 8 8 10
Wind_Direction
268 266 258 260 263 242 216 202 192 191 188 189 190 194 201 200 207 207 203 197 194 190 197 198 192 190 190 190 190 192 195 185 167 144 182 203 218 217 239 236 225 220 226
256 262 257 247 253 236 216 205 198 185 189 192 200 196 196 206 207 211 211 204 201 194 196 195 193 193 193 189 187 188 171 188 173 158 137 195 207 226 218 229 236 238 232
259 257 255 243 251 229 216 206 199 192 185 190 189 185 168 199 194 205 211 209 203 205 205 199 195 191 192 190 185 195 191 175 185 190 171 183 225 167 187 225 230 234 230
256 247 252 252 251 235 216 210 201 193 187 183 184 187 185 192 207 205 197 196 204 202 208 206 210 208 200 196 194 189 197 189 180 188 222 196 135 194 193 212 219 225 232
243 242 245 247 171 136 168 163 148 169 178 180 186 190 190 194 184 178 173 182 168 141 130 110 324 242 227 217 196 197 201 206 193 183 170 205 176 195 213 238 194 219 231
92 78 84 90 82 84 86 97 100 82 75 88 158 185 188 168 160 172 169 174 152 158 169 184 118 271 240 226 212 211 208 207 208 197 192 182 181 194 196 214 213 214 216
54 66 64 63 61 68 81 79 85 76 69 66 58 66 74 77 100 153 186 175 184 202 186 175 181 208 234 233 218 214 213 211 210 204 198 199 202 174 201 199 205 216 218
41 49 53 55 53 52 65 65 67 69 66 66 65 58 45 57 54 47 46 116 202 244 226 206 185 219 221 218 219 223 213 206 208 212 215 202 202 192 173 191 184 204 224
35 40 44 45 47 45 48 51 55 58 54 55 54 55 52 48 29 357 17 2 332 296 280 264 207 214 228 220 217 218 218 209 205 214 212 213 202 204 196 176 183 192 223
26 34 35 35 36 40 43 45 52 44 48 45 49 46 47 38 29 14 356 358 338 323 311 294 278 256 238 226 215 217 219 211 214 210 210 212 209 204 190 194 185 194 216
17 26 30 33 34 38 41 42 46 35 41 28 32 38 19 26 28 8 350 355 328 323 303 291 276 257 251 239 229 219 218 213 211 208 206 213 212 202 191 178 191 197 205
13 15 23 28 30 31 36 40 39 40 38 26 25 25 19 20 13 2 352 343 325 313 293 284 271 260 252 251 239 227 215 212 212 209 205 214 211 201 187 180 191 197 202
15 19 20 22 25 21 26 30 38 50 37 27 17 17 21 23 20 2 340 328 314 306 300 293 280 268 262 253 249 238 222 212 215 213 207 213 203 198 183 184 189 193 198
25 21 20 21 24 13 18 18 17 29 20 16 7 355 13 11 3 345 339 330 322 310 301 290 287 279 270 263 254 240 226 213 216 210 213 213 203 198 187 186 189 190 190
19 15 13 18 12 13 13 8 27 28 19 9 357 356 10 3 354 353 343 336 326 313 302 295 283 273 263 261 238 232 222 220 216 206 210 215 206 194 191 183 184 189 192
12 14 14 15 11 11 3 6 12 17 14 12 0 10 5 350 354 346 333 330 326 316 306 299 291 282 272 258 226 227 219 218 212 208 205 204 196 198 188 192 181 188 195
7 8 11 11 6 6 360 2 1 3 5 12 5 1 354 351 352 347 344 338 330 318 312 302 293 285 276 265 223 211 221 209 210 205 199 199 196 187 185 191 187 186 189
6 7 4 6 2 2 1 0 1 9 10 8 358 359 357 353 353 352 347 335 327 316 310 304 301 295 282 274 219 212 215 211 214 203 199 192 188 191 178 182 177 156 134
4 358 1 3 355 3 2 359 10 12 16 358 359 359 358 351 352 350 345 341 328 326 322 318 314 314 306 299 217 211 220 218 210 201 195 193 187 179 165 167 156 129 90
6 5 2 356 359 356 358 4 7 6 9 360 1 357 357 356 358 353 353 345 341 336 334 330 330 332 332 331 338 223 224 215 192 189 190 180 184 160 162 164 160 163 173
7 11 3 9 4 355 360 5 5 4 353 351 356 355 358 1 5 357 356 357 356 355 352 344 344 347 353 350 349 296 241 190 177 174 175 170 166 166 167 156 169 177 144
8 9 9 10 7 2 1 3 6 356 353 350 353 355 355 1 2 2 360 4 5 6 3 354 356 360 355 358 358 352 279 194 169 167 109 120 122 116 109 102 122 126 124
6 5 5 8 14 5 4 7 354 356 357 360 359 358 354 357 359 4 5 4 10 10 9 1 0 359 360 358 1 3 25 15 77 105 106 108 105 98 86 99 106 111 120
10 3 8 12 10 5 7 360 355 356 0 6 4 360 1 3 4 2 8 5 9 12 16 4 3 6 4 3 3 8 9 20 59 74 79 84 87 85 95 87 74 78 93
11 15 13 11 8 5 9 5 1 1 5 11 8 4 5 9 8 10 8 10 22 21 17 13 7 9 14 14 12 29 33 26 31 58 61 66 69 83 84 77 76 85 92
9 14 15 15 10 11 9 8 5 5 5 7 7 7 359 9 11 12 3 13 26 28 31 25 28 20 28 27 31 34 45 50 53 53 51 54 59 58 74 83 85 79 89